This is the latest recevied weather packets stored in our database for station/object OH2TH. If no packets are shown the sender has not sent any weather packets the latest 10 day(s).
| Time | Temp. | Humidity | Pressure | Rain* | Wind** | Luminosity | Snow |
|---|---|---|---|---|---|---|---|
| 1777833003 | 12.78° C | 66% | 101 hPa | 9.4 mm | - | - | - |
| 1777832102 | 13.33° C | 65% | 101 hPa | 9.4 mm | - | - | - |
| 1777831202 | 13.33° C | 64% | 101 hPa | 9.4 mm | - | - | - |
| 1777830301 | 13.33° C | 63% | 101 hPa | 12.45 mm | - | - | - |
| 1777829401 | 13.33° C | 63% | 101 hPa | 12.45 mm | - | - | - |
| 1777828500 | 14.44° C | 61% | 101 hPa | 12.45 mm | - | - | - |
| 1777827605 | 14.44° C | 60% | 101 hPa | 12.45 mm | - | - | - |
| 1777826705 | 14.44° C | 58% | 101 hPa | 12.45 mm | - | - | - |
| 1777825804 | 14.44° C | 57% | 101 hPa | 12.45 mm | - | - | - |
| 1777824904 | 15° C | 57% | 101 hPa | 12.45 mm | - | - | - |
| 1777824004 | 15° C | 58% | 101 hPa | 12.45 mm | - | - | - |
| 1777823104 | 15° C | 58% | 101 hPa | 12.45 mm | - | - | - |
| 1777822203 | 15° C | 55% | 101 hPa | 12.45 mm | - | - | - |
| 1777821303 | 16.11° C | 51% | 101 hPa | 12.45 mm | - | - | - |
| 1777820403 | 16.67° C | 44% | 101 hPa | 12.45 mm | - | - | - |
| 1777819503 | 17.78° C | 43% | 101 hPa | 12.45 mm | - | - | - |
| 1777818603 | 17.78° C | 43% | 101 hPa | 12.45 mm | - | - | - |
| 1777817703 | 17.78° C | 44% | 101 hPa | 12.45 mm | - | - | - |
| 1777816803 | 17.78° C | 43% | 101 hPa | 12.45 mm | - | - | - |
| 1777815902 | 17.78° C | 42% | 101 hPa | 12.45 mm | - | - | - |
| 1777815002 | 17.78° C | 43% | 101 hPa | 12.45 mm | - | - | - |
| 1777814102 | 18.33° C | 43% | 101 hPa | 12.45 mm | - | - | - |
| 1777813202 | 18.33° C | 43% | 101 hPa | 12.45 mm | - | - | - |
| 1777812302 | 18.33° C | 43% | 101 hPa | 12.45 mm | - | - | - |
| 1777811401 | 18.33° C | 44% | 101 hPa | 12.45 mm | - | - | - |
* Rain latest 24 hours (hover to see other rain measurements)
** Current wind speed in m/s (hover to see current wind gust speed)